Temperature
11 11 12 12 13 13 14 17 19 20 22 23 24 25 24 24 24 22 21 20 20 20 20 19 19 18 18 17 17 17 17 17 17 17 17 17 16 16 16 16 16 16 16 16 16 16 16 16 16
10 11 11 12 12 13 15 17 18 20 22 23 23 23 24 23 23 21 20 19 19 19 19 19 18 18 17 17 17 17 17 17 17 16 16 16 16 16 16 16 16 16 16 16 16 16 16 16 16
10 11 11 12 12 13 15 18 19 20 21 21 22 22 22 22 22 20 19 19 18 18 18 18 18 17 17 17 17 17 17 16 16 16 16 16 16 16 16 16 16 16 16 16 16 16 16 16 16
10 10 11 11 12 14 16 17 18 19 20 20 20 20 21 21 20 19 19 19 18 17 18 18 18 17 17 17 17 17 16 16 16 16 16 16 16 16 16 16 16 16 16 16 16 16 16 16 16
10 10 10 11 12 14 16 17 18 18 18 19 19 18 19 19 19 19 18 18 18 17 17 17 17 17 17 17 17 16 16 16 16 16 16 16 16 16 16 16 16 16 16 16 16 16 16 16 16
10 10 10 11 12 15 16 17 17 17 17 18 18 17 18 18 18 18 18 17 17 17 17 17 17 17 17 16 16 16 16 16 16 16 16 16 16 16 16 16 16 16 16 16 16 16 16 16 16
9 10 10 11 12 14 16 16 16 16 16 17 17 16 17 17 17 17 17 17 17 17 17 17 16 16 16 16 16 16 16 16 16 16 16 15 15 16 16 16 16 16 16 16 16 16 16 16 16
9 10 10 11 12 13 15 15 15 15 15 16 16 15 16 16 16 16 16 16 16 16 16 16 16 16 16 16 16 16 16 16 16 15 15 15 15 15 15 15 16 15 16 16 16 16 16 16 16
9 8 9 11 12 13 14 14 14 14 14 15 15 15 15 15 15 15 15 16 16 15 15 15 16 16 16 16 16 15 15 15 15 15 15 15 15 15 15 15 15 15 15 16 16 16 16 16 16
9 8 10 12 12 12 13 12 12 12 13 14 14 14 14 15 15 15 15 15 15 15 15 15 15 15 15 15 15 15 15 15 15 15 15 15 15 15 15 15 15 15 15 15 16 16 16 16 16
9 9 11 12 12 11 11 11 11 12 12 12 13 13 14 14 14 14 14 14 15 15 15 14 14 14 15 15 15 15 15 15 15 15 15 15 15 14 15 15 15 15 15 15 15 15 16 15 15
10 10 11 11 11 11 11 11 11 11 11 12 12 13 13 13 14 14 14 14 14 14 14 14 14 14 14 15 15 15 15 15 15 15 14 14 14 14 14 15 15 15 15 15 15 15 15 15 15
10 10 11 11 11 10 10 10 10 11 11 12 12 12 12 13 13 13 13 14 14 14 14 14 14 14 14 14 14 14 14 14 14 14 14 14 14 14 14 15 15 15 15 15 15 15 15 15 15
10 10 10 10 10 10 10 10 10 11 11 11 12 12 12 12 13 13 13 13 13 13 14 14 14 14 14 14 14 14 14 14 14 14 14 14 14 14 14 14 14 14 14 15 15 15 14 14 14
10 9 9 10 10 10 10 10 10 11 11 11 11 11 12 12 12 13 13 13 13 13 13 14 14 14 14 14 14 14 14 14 14 14 14 14 14 14 14 14 14 14 14 14 14 14 14 14 14
9 8 8 10 10 10 9 8 10 11 11 11 11 11 12 12 12 12 12 13 13 13 13 13 13 13 13 13 14 14 14 14 14 14 14 14 14 14 14 14 14 14 14 14 14 14 14 14 14
9 8 8 10 10 10 9 9 10 11 11 11 11 11 11 12 12 12 12 12 12 12 13 13 13 13 13 13 13 14 14 14 14 14 14 14 14 14 14 14 14 14 14 14 14 14 14 14 14
8 8 9 9 10 10 9 9 10 11 11 11 11 11 11 12 12 12 12 12 12 12 13 13 13 13 13 13 13 13 13 13 14 14 14 14 14 14 14 14 14 14 14 14 14 14 14 14 14
9 8 8 9 10 9 9 9 10 11 11 11 11 11 11 11 11 11 12 12 12 12 12 12 12 12 13 13 13 13 13 13 13 14 14 14 14 14 14 14 14 14 14 14 14 14 13 13 13
9 8 8 9 10 9 9 9 10 11 10 11 11 11 11 11 11 11 11 11 11 12 12 12 12 12 12 13 13 13 13 13 13 14 13 14 14 14 14 14 14 14 14 14 13 13 13 13 13
9 9 8 8 9 10 9 9 10 10 11 11 11 11 10 10 10 10 11 11 11 11 12 12 12 12 12 12 12 13 13 13 13 13 13 13 13 14 13 13 14 13 13 13 13 13 13 13 13
8 9 9 9 8 8 9 8 9 10 10 10 10 10 10 10 10 10 10 10 11 11 11 11 12 12 12 12 12 12 12 12 12 13 13 13 13 13 13 13 13 13 13 13 13 13 13 13 13
9 10 9 9 9 8 9 8 9 9 9 10 10 10 10 10 10 10 10 10 10 10 11 11 11 11 12 12 12 12 12 12 12 12 12 12 12 12 12 12 12 13 13 13 13 13 13 13 13
9 9 9 9 8 8 9 9 8 8 9 9 9 9 9 9 9 9 9 10 10 10 11 11 11 11 11 11 11 11 12 12 12 12 12 12 12 12 12 12 12 12 12 12 12 12 12 12 12
9 8 7 8 8 9 10 9 8 8 8 9 9 9 9 9 9 9 9 9 10 10 10 10 10 11 11 11 11 11 11 12 12 12 12 12 12 12 12 12 12 12 12 12 12 12 12 12 12
8 8 7 7 8 9 9 9 8 8 8 9 8 8 8 8 8 8 9 9 9 9 9 10 10 10 10 10 10 11 11 11 11 11 11 11 11 11 11 11 11 11 11 11 11 11 11 11 11
8 8 8 7 8 8 9 9 8 8 8 8 8 8 7 7 8 8 8 8 9 9 9 9 9 9 10 10 10 10 10 10 10 10 10 10 11 11 11 11 11 11 11 11 10 11 11 11 11
9 9 8 8 8 8 9 8 7 7 7 8 7 7 7 7 7 7 7 7 8 8 8 9 9 9 9 9 9 10 10 10 10 10 10 10 10 10 10 10 10 10 10 10 10 10 10 10 10
8 8 8 8 8 8 8 8 8 7 7 7 7 7 7 7 7 7 7 7 7 7 8 8 8 8 9 9 9 9 9 9 9 9 9 9 9 9 9 9 10 9 9 9 9 9 9 9 10
8 9 8 7 8 8 7 7 8 7 7 7 7 7 7 6 6 6 6 7 7 7 7 8 8 8 8 8 8 8 8 9 9 9 9 9 9 9 9 9 9 9 9 9 9 9 9 9 9
Wind_Speed
10 10 5 2 4 8 19 16 13 13 14 11 9 9 9 8 3 2 6 9 16 19 21 24 23 22 21 21 21 20 20 20 20 19 19 19 18 17 18 17 17 17 17 17 17 17 17 18 17
9 6 4 4 8 14 14 16 19 17 12 9 8 8 7 5 1 6 6 10 16 18 20 21 23 22 21 21 21 20 20 20 20 20 19 19 18 18 18 18 18 17 17 17 17 17 17 17 16
8 5 4 5 10 17 12 9 11 11 10 10 9 7 6 3 1 3 6 10 13 15 18 20 23 22 21 20 20 20 20 20 20 19 19 19 18 18 18 18 18 17 18 18 18 17 17 16 15
3 3 4 9 19 18 16 14 12 10 9 9 7 6 4 3 1 4 8 8 10 13 16 21 23 21 21 20 20 20 20 20 20 19 19 19 19 19 19 18 18 18 18 18 17 17 16 15 14
3 3 7 12 20 19 16 14 14 12 11 10 7 6 6 3 5 6 7 7 8 10 14 21 23 21 21 20 20 20 19 19 20 19 20 19 19 19 19 18 18 18 18 18 17 16 15 14 13
3 4 8 14 18 18 16 15 15 14 13 11 8 8 6 3 3 4 5 6 7 8 12 18 22 21 20 20 20 20 19 19 19 19 20 19 19 19 19 19 19 18 18 17 16 16 14 13 11
4 5 11 14 16 16 14 11 12 12 13 10 6 8 5 4 1 2 4 5 6 7 9 13 16 18 19 19 19 19 19 19 19 19 19 19 19 19 19 20 19 18 18 17 16 15 14 12 10
4 4 9 12 15 16 12 10 10 11 12 9 5 6 5 3 2 2 2 3 5 7 8 10 13 15 15 16 18 18 18 18 18 19 19 19 19 19 19 19 18 18 17 16 15 14 13 12 9
3 6 11 13 13 12 9 9 10 10 9 9 7 8 8 5 2 2 1 1 4 7 8 8 9 12 14 15 16 17 17 17 18 18 20 19 17 17 17 17 18 18 17 16 15 14 13 11 9
5 8 13 12 10 11 11 10 10 9 11 10 9 8 9 7 5 4 4 5 5 7 8 8 8 9 11 13 14 13 14 15 16 16 18 16 16 15 16 18 18 18 17 16 14 14 13 10 8
7 10 12 13 11 10 11 12 12 11 12 12 10 10 9 9 8 6 6 6 7 8 8 8 8 8 9 8 10 9 10 12 14 16 17 15 14 13 14 13 14 15 15 13 13 12 11 10 10
10 14 14 12 10 11 12 11 12 13 14 13 13 11 9 9 9 8 8 6 5 7 8 8 7 7 8 8 8 8 7 8 9 14 16 12 8 8 10 10 12 13 12 11 11 10 11 11 11
12 13 13 11 10 11 12 12 13 15 14 13 14 12 9 9 9 7 6 5 5 7 7 8 8 8 7 8 8 8 7 8 9 11 14 13 8 8 8 8 11 12 12 11 9 8 7 7 8
8 10 11 11 12 11 12 14 13 14 12 13 12 11 10 10 8 6 6 6 5 6 7 8 9 8 7 6 7 8 7 8 9 9 12 15 11 8 8 7 7 9 11 11 9 7 5 4 4
8 10 11 11 12 9 8 12 12 13 10 10 10 10 9 8 7 7 6 6 5 5 5 7 7 7 7 6 7 7 6 7 7 9 12 13 12 10 8 7 6 7 10 11 8 6 4 3 3
8 7 6 6 5 4 4 10 9 7 5 6 7 8 8 7 7 6 6 5 5 5 5 6 7 6 6 5 5 6 7 7 7 8 9 11 12 12 8 7 6 8 9 7 5 5 4 4 3
5 4 7 6 3 3 5 8 8 6 6 6 5 6 6 7 5 4 4 5 5 5 5 5 6 5 6 6 4 5 6 6 6 7 7 9 11 12 9 6 6 8 6 5 6 5 5 5 4
4 5 8 7 4 4 5 8 9 7 7 5 5 5 4 4 4 3 3 3 4 5 5 5 5 5 6 5 3 4 6 5 5 5 6 9 10 11 9 6 7 7 5 5 5 5 5 4 4
7 8 10 9 6 5 5 7 8 6 5 3 3 2 2 2 1 1 3 3 3 3 4 5 6 6 5 5 5 6 7 6 5 5 7 8 9 10 8 6 6 6 6 6 6 5 6 5 4
7 7 7 7 5 5 4 6 5 3 1 1 1 0 1 1 2 2 4 3 2 3 2 3 5 6 6 4 4 5 6 5 5 5 5 8 9 9 8 7 7 7 6 6 6 5 4 4 5
6 5 4 6 6 3 2 4 4 2 3 3 2 3 2 3 3 3 4 4 3 2 2 1 3 5 6 5 4 5 5 4 4 5 5 6 8 8 7 7 6 6 6 6 6 7 6 5 5
5 3 4 6 4 2 2 2 3 3 4 4 4 5 4 4 3 4 5 5 4 2 2 2 2 4 5 5 4 6 6 5 5 6 6 6 7 7 7 7 7 7 6 6 6 6 5 6 6
4 7 6 7 3 2 2 1 1 3 4 6 6 6 6 4 4 5 4 5 4 3 2 3 2 3 4 4 4 5 5 3 4 5 6 5 5 6 7 7 6 6 6 7 7 7 6 6 6
6 6 6 4 1 1 1 1 2 3 5 6 7 7 7 6 5 5 5 5 4 3 3 3 4 3 4 3 4 4 5 5 5 6 6 5 4 4 6 6 6 6 5 6 6 6 7 6 6
4 3 2 1 0 1 2 3 3 6 6 6 7 7 6 6 5 6 6 6 5 5 5 4 4 4 3 3 3 2 3 5 5 5 6 5 4 4 6 5 6 6 5 6 5 6 6 7 7
3 2 2 2 1 1 3 2 3 6 8 8 8 8 8 8 7 7 7 7 6 6 5 5 4 4 4 3 3 2 1 2 2 2 3 4 4 4 5 5 5 5 5 5 5 5 5 5 6
3 2 2 1 1 1 1 2 4 8 8 9 9 9 9 9 9 9 9 8 7 6 6 6 4 4 4 3 3 2 2 2 2 2 2 2 2 2 4 5 5 5 5 5 5 4 5 5 5
2 3 3 2 1 1 1 2 2 4 6 7 8 9 9 9 10 10 9 8 8 7 6 7 6 5 4 4 3 2 2 1 1 2 2 2 2 2 3 4 4 5 5 5 5 4 4 5 5
2 2 3 3 1 1 1 3 4 3 4 6 8 8 8 9 9 9 8 8 8 8 8 8 7 6 6 5 4 3 2 2 1 1 1 2 2 3 3 3 4 4 4 5 5 5 5 6 6
2 3 3 2 3 1 1 2 5 6 6 7 8 8 8 9 8 8 8 9 9 9 9 8 7 7 6 5 4 4 3 2 2 1 1 0 1 2 3 3 3 4 4 5 6 6 6 7 7
Wind_Direction
290 267 258 239 223 229 238 236 247 248 247 251 259 258 249 252 262 133 133 129 124 137 147 155 156 157 158 157 156 154 155 155 154 153 151 149 147 144 142 138 135 131 127 123 119 115 112 108 105
288 262 238 227 222 227 240 235 243 252 266 280 280 275 267 264 48 103 117 120 128 138 147 157 156 158 158 158 158 157 157 158 157 156 154 152 150 147 145 142 138 134 130 126 121 116 113 111 109
272 259 229 226 225 228 237 236 238 252 267 275 275 274 269 266 76 98 102 117 127 138 148 154 156 158 159 159 159 159 159 160 159 158 156 155 152 150 148 144 139 134 129 125 122 118 115 114 113
256 214 240 239 236 234 249 268 286 280 280 278 281 284 284 295 45 94 102 114 129 141 146 152 156 159 160 159 159 160 160 161 160 159 157 155 154 151 148 144 139 134 130 128 125 121 118 117 117
246 230 228 240 246 248 255 267 278 278 269 273 279 276 279 324 61 88 104 114 126 139 144 153 158 161 161 161 161 161 161 161 161 161 160 158 155 152 147 143 139 136 134 132 129 125 123 122 122
224 226 232 240 248 248 249 257 267 269 269 272 279 274 268 318 49 92 101 114 125 134 141 153 159 160 162 163 163 163 164 163 162 162 162 160 156 152 148 144 142 141 139 137 133 129 128 127 127
243 243 243 253 261 260 258 262 262 266 264 265 277 271 262 279 3 72 98 112 119 128 137 153 159 161 162 163 164 164 164 164 163 164 161 157 154 151 150 146 145 144 143 140 137 134 132 131 132
250 265 252 250 258 264 273 280 280 277 270 276 263 248 246 254 343 356 85 119 128 135 139 156 161 162 164 164 164 162 163 162 163 161 156 153 152 151 150 148 148 146 145 142 140 139 137 135 139
255 243 246 248 256 273 289 298 305 303 282 276 266 252 258 251 286 296 251 175 148 152 146 154 166 166 165 165 166 161 160 160 157 156 153 152 154 153 154 152 149 147 147 145 144 144 142 140 148
211 241 247 256 271 285 295 300 304 293 281 276 272 261 248 232 223 222 219 201 189 172 160 161 166 168 165 165 161 164 165 165 163 162 160 162 161 161 157 154 150 148 148 148 150 150 150 152 164
219 246 259 267 274 285 288 286 286 279 271 269 270 260 237 222 215 215 222 207 199 181 169 170 168 170 165 161 162 167 168 171 171 170 170 167 159 154 147 148 149 149 151 154 156 160 175 182 181
243 256 265 269 270 277 277 278 278 270 267 273 278 268 260 236 216 211 223 209 205 191 178 176 174 176 171 168 168 165 169 173 171 173 172 164 156 153 153 158 161 163 170 164 168 184 196 192 183
254 265 269 270 267 271 273 267 270 270 271 271 273 260 250 250 237 217 218 202 212 198 189 183 180 183 177 173 169 168 174 170 168 168 170 166 160 159 161 167 168 172 173 168 180 197 193 184 186
267 277 280 281 277 271 268 268 265 266 269 264 257 256 249 243 236 230 230 208 208 207 193 193 187 186 177 174 172 168 170 166 163 166 170 170 168 163 161 164 166 172 171 173 183 194 179 180 181
274 280 280 267 261 260 267 270 260 263 259 260 250 255 255 247 230 224 228 208 197 201 187 192 188 185 175 176 177 170 164 164 162 167 172 173 168 163 161 161 164 169 169 172 182 185 170 176 170
263 264 268 266 259 267 244 264 269 270 264 268 256 252 251 250 228 212 216 200 186 191 175 189 182 186 175 168 176 169 166 161 164 164 170 171 167 163 159 160 167 170 169 169 171 171 169 173 170
239 258 274 289 258 255 240 269 286 283 280 276 261 248 250 246 223 204 198 186 180 184 167 174 170 184 183 165 171 162 158 156 163 163 168 169 165 162 160 162 168 169 165 167 175 173 171 174 181
279 288 291 291 284 288 276 278 286 279 271 266 255 241 229 240 229 202 187 173 179 174 163 164 166 180 176 164 160 159 149 155 161 158 166 164 165 164 162 161 171 169 168 174 173 172 176 178 177
284 281 285 291 291 290 278 282 288 285 270 266 276 232 214 242 234 135 132 130 139 156 161 162 167 179 171 166 166 168 164 158 161 164 166 167 167 167 164 166 173 173 176 179 176 176 181 186 170
276 279 285 300 304 294 283 298 300 306 298 267 276 171 62 86 56 65 90 104 119 142 146 177 170 167 166 170 176 171 160 159 163 163 170 172 170 171 172 171 176 176 178 179 183 176 180 189 173
291 278 290 299 310 268 288 316 343 27 51 48 46 60 60 101 95 99 99 102 106 117 127 168 181 175 162 163 164 160 149 144 162 168 169 173 172 172 171 171 171 176 179 186 188 183 184 191 194
298 313 303 300 317 307 299 326 342 23 49 52 66 70 62 59 79 96 98 97 98 95 103 112 176 172 158 151 160 167 162 167 178 173 166 170 169 170 174 172 172 179 182 187 194 192 193 188 201
297 311 293 279 280 290 268 224 339 37 36 37 50 67 63 58 81 92 86 90 86 77 83 108 135 141 132 145 166 173 165 163 165 158 160 169 170 169 174 176 176 185 190 193 195 194 197 200 204
294 297 291 269 253 294 292 139 34 21 20 32 42 45 43 42 59 73 73 80 78 67 61 77 110 114 113 137 153 171 173 160 165 160 167 169 168 170 174 176 181 189 193 198 201 199 199 206 210
329 337 345 2 97 3 15 60 49 28 29 38 42 43 38 36 46 51 51 54 59 57 53 71 85 89 93 115 131 156 169 155 165 168 171 172 175 181 186 186 189 194 195 195 197 199 204 205 207
309 323 345 341 13 21 20 47 54 38 37 45 50 49 44 39 41 40 40 42 44 50 50 62 68 77 81 89 86 95 95 120 141 149 155 173 186 185 190 191 190 191 192 197 197 203 208 207 207
324 334 307 284 299 79 102 96 75 35 39 43 46 45 40 37 38 38 38 38 44 49 45 48 52 65 74 87 93 77 83 101 129 138 136 162 182 185 184 190 191 187 189 197 195 203 205 203 208
306 310 315 329 15 41 104 73 27 30 35 41 43 43 38 37 37 39 38 40 44 44 43 44 47 57 59 57 68 72 76 85 121 143 161 176 190 189 189 188 185 186 190 194 194 200 202 201 212
347 324 314 306 333 35 76 48 35 67 59 51 48 48 42 40 38 36 37 38 40 39 38 38 39 43 42 41 37 39 50 63 70 132 182 191 201 202 199 197 195 194 195 199 200 208 205 208 216
320 335 330 350 336 353 94 62 41 69 64 59 54 48 45 43 39 36 39 39 37 34 31 29 33 36 31 29 24 26 28 52 57 38 49 190 217 215 210 208 204 209 210 207 208 215 213 212 216
Height
1491 1494 1497 1499 1500 1496 1483 1472 1466 1465 1463 1462 1462 1462 1462 1465 1469 1477 1474 1473 1473 1475 1479 1483 1487 1491 1495 1498 1501 1505 1508 1511 1514 1517 1520 1522 1525 1527 1530 1532 1534 1535 1537 1539 1540 1542 1543 1544 1546
1491 1494 1497 1497 1495 1490 1477 1469 1467 1463 1462 1462 1461 1461 1461 1464 1467 1471 1472 1473 1473 1475 1478 1482 1486 1490 1494 1498 1501 1504 1508 1511 1514 1517 1520 1523 1526 1528 1530 1532 1535 1536 1538 1540 1542 1543 1545 1546 1547
1490 1493 1495 1492 1486 1479 1470 1462 1462 1462 1463 1463 1462 1462 1463 1465 1467 1470 1471 1473 1474 1476 1479 1482 1486 1490 1494 1497 1501 1504 1507 1511 1514 1517 1520 1523 1526 1528 1531 1533 1535 1537 1539 1541 1543 1545 1546 1548 1549
1491 1493 1493 1489 1478 1470 1467 1465 1463 1463 1463 1463 1463 1463 1463 1466 1467 1468 1470 1472 1475 1477 1479 1482 1486 1490 1493 1497 1500 1504 1507 1510 1514 1517 1520 1523 1526 1529 1531 1533 1536 1538 1540 1542 1544 1546 1548 1549 1550
1490 1491 1490 1483 1475 1469 1466 1466 1466 1464 1464 1463 1464 1464 1464 1466 1466 1467 1470 1472 1474 1477 1479 1482 1486 1489 1493 1496 1500 1503 1507 1510 1513 1517 1520 1523 1526 1529 1531 1534 1536 1539 1541 1543 1545 1547 1549 1550 1552
1490 1488 1486 1480 1472 1467 1466 1467 1467 1464 1463 1463 1464 1464 1464 1465 1465 1467 1469 1472 1474 1476 1479 1481 1485 1489 1492 1496 1499 1503 1506 1510 1513 1516 1520 1523 1526 1529 1531 1534 1537 1539 1541 1544 1546 1548 1550 1551 1553
1489 1485 1481 1476 1472 1466 1464 1465 1464 1463 1462 1462 1464 1464 1464 1465 1465 1466 1468 1471 1473 1475 1477 1480 1484 1488 1491 1495 1498 1502 1506 1509 1512 1516 1519 1522 1525 1528 1531 1534 1537 1539 1542 1544 1546 1548 1550 1552 1554
1486 1485 1478 1475 1472 1467 1464 1463 1462 1462 1460 1461 1462 1463 1463 1464 1464 1465 1467 1469 1471 1474 1476 1479 1482 1486 1490 1494 1497 1501 1505 1508 1512 1515 1518 1522 1525 1528 1531 1534 1537 1539 1542 1545 1547 1549 1551 1553 1555
1484 1486 1478 1472 1469 1466 1463 1463 1462 1461 1460 1459 1459 1460 1461 1463 1464 1464 1465 1467 1469 1472 1474 1477 1481 1484 1488 1492 1496 1500 1504 1507 1511 1514 1518 1521 1524 1528 1531 1534 1537 1539 1542 1545 1547 1549 1551 1553 1555
1483 1480 1473 1468 1466 1465 1464 1463 1464 1462 1459 1458 1458 1458 1459 1461 1462 1463 1463 1464 1467 1470 1472 1475 1478 1482 1486 1490 1494 1498 1502 1505 1509 1512 1516 1520 1523 1527 1530 1533 1536 1539 1542 1544 1547 1549 1551 1553 1555
1477 1473 1468 1466 1465 1465 1463 1463 1463 1461 1458 1457 1457 1457 1457 1459 1460 1460 1461 1462 1464 1467 1469 1473 1476 1480 1484 1487 1491 1495 1499 1503 1507 1511 1515 1518 1522 1525 1528 1531 1535 1538 1541 1543 1546 1549 1551 1553 1555
1472 1468 1466 1464 1464 1463 1462 1461 1460 1458 1456 1455 1454 1453 1454 1455 1456 1458 1458 1459 1461 1464 1467 1471 1474 1477 1481 1485 1489 1493 1497 1501 1504 1508 1513 1516 1520 1523 1526 1530 1533 1536 1539 1542 1545 1548 1550 1552 1555
1468 1465 1463 1462 1461 1460 1459 1457 1456 1454 1453 1452 1451 1450 1451 1452 1453 1454 1456 1457 1459 1462 1464 1469 1472 1475 1478 1482 1486 1490 1494 1498 1502 1506 1510 1514 1517 1521 1524 1528 1531 1535 1538 1541 1544 1547 1549 1552 1554
1466 1463 1461 1460 1458 1457 1455 1454 1453 1448 1449 1447 1446 1447 1448 1449 1450 1452 1453 1454 1456 1458 1462 1466 1469 1472 1476 1479 1483 1487 1491 1495 1499 1503 1507 1511 1515 1519 1522 1526 1529 1533 1536 1539 1542 1545 1548 1550 1552
1464 1463 1460 1456 1453 1452 1453 1451 1447 1445 1445 1443 1442 1443 1444 1445 1447 1448 1449 1451 1454 1456 1459 1462 1465 1469 1473 1475 1479 1484 1488 1493 1496 1500 1505 1509 1512 1516 1520 1524 1527 1531 1534 1538 1541 1544 1546 1548 1551
1463 1462 1459 1452 1449 1449 1455 1450 1444 1442 1442 1440 1440 1440 1441 1442 1444 1445 1447 1448 1451 1452 1455 1459 1462 1465 1469 1473 1476 1481 1485 1489 1494 1497 1502 1506 1509 1513 1517 1521 1525 1528 1532 1535 1538 1541 1543 1546 1548
1460 1460 1456 1451 1447 1448 1451 1447 1441 1440 1439 1438 1438 1438 1438 1439 1440 1442 1443 1445 1447 1449 1452 1456 1459 1463 1466 1470 1473 1477 1482 1486 1491 1494 1499 1503 1506 1510 1514 1518 1522 1525 1529 1532 1535 1538 1540 1542 1545
1460 1458 1454 1451 1448 1447 1447 1444 1439 1438 1436 1435 1436 1436 1436 1437 1438 1439 1440 1442 1445 1447 1451 1453 1456 1460 1463 1466 1469 1474 1479 1483 1488 1491 1495 1499 1503 1506 1511 1514 1518 1522 1525 1528 1531 1534 1537 1539 1542
1458 1457 1454 1449 1446 1447 1445 1442 1437 1435 1434 1433 1434 1434 1434 1435 1437 1437 1438 1439 1443 1445 1448 1450 1454 1457 1460 1463 1467 1470 1475 1480 1484 1488 1492 1496 1500 1503 1507 1511 1514 1518 1521 1525 1528 1531 1533 1536 1538
1456 1455 1453 1448 1445 1445 1443 1440 1436 1433 1432 1431 1432 1432 1432 1434 1435 1436 1437 1439 1441 1443 1446 1449 1451 1454 1457 1461 1465 1468 1473 1477 1480 1484 1489 1492 1496 1499 1504 1507 1511 1514 1517 1521 1524 1527 1529 1531 1534
1454 1453 1452 1449 1445 1442 1443 1441 1436 1433 1432 1431 1431 1432 1434 1434 1435 1436 1437 1439 1441 1442 1444 1446 1450 1452 1456 1460 1463 1466 1470 1474 1478 1481 1484 1488 1492 1496 1500 1503 1507 1510 1513 1516 1519 1522 1525 1526 1529
1455 1450 1449 1448 1449 1449 1445 1448 1440 1435 1434 1434 1433 1434 1435 1435 1436 1436 1437 1438 1440 1442 1444 1446 1448 1450 1454 1457 1460 1462 1465 1469 1473 1477 1480 1484 1488 1492 1496 1499 1503 1506 1509 1512 1515 1518 1520 1522 1524
1453 1449 1448 1447 1448 1450 1445 1448 1445 1439 1438 1437 1436 1435 1436 1436 1436 1437 1438 1439 1440 1442 1443 1445 1447 1448 1451 1454 1457 1460 1463 1467 1471 1473 1477 1481 1484 1488 1491 1495 1498 1501 1504 1507 1510 1512 1515 1517 1519
1452 1449 1446 1444 1447 1451 1443 1445 1448 1444 1443 1440 1439 1439 1438 1437 1437 1438 1439 1440 1441 1442 1442 1443 1445 1447 1450 1453 1456 1459 1462 1464 1467 1469 1473 1477 1480 1483 1487 1490 1494 1496 1499 1502 1504 1507 1509 1511 1513
1453 1456 1456 1453 1452 1450 1441 1444 1451 1447 1445 1443 1442 1442 1441 1440 1440 1440 1440 1440 1441 1441 1441 1443 1445 1446 1448 1451 1454 1457 1459 1461 1464 1466 1470 1473 1476 1479 1482 1485 1488 1491 1494 1496 1499 1501 1503 1505 1507
1455 1457 1462 1461 1456 1451 1445 1449 1453 1449 1447 1446 1445 1444 1443 1442 1441 1441 1440 1440 1441 1442 1443 1444 1445 1447 1449 1451 1453 1455 1456 1458 1461 1464 1466 1469 1472 1475 1477 1480 1483 1485 1488 1491 1493 1495 1497 1499 1501
1456 1456 1455 1458 1453 1455 1451 1451 1453 1451 1450 1449 1448 1447 1446 1445 1444 1443 1442 1442 1443 1443 1444 1445 1446 1447 1449 1451 1452 1453 1455 1457 1459 1462 1463 1466 1469 1471 1473 1475 1477 1480 1483 1485 1487 1489 1491 1493 1495
1457 1456 1457 1457 1456 1456 1451 1453 1459 1456 1454 1452 1451 1451 1450 1449 1447 1446 1445 1445 1444 1445 1445 1445 1447 1448 1449 1450 1451 1452 1454 1455 1457 1459 1461 1463 1465 1467 1469 1470 1472 1474 1477 1479 1481 1483 1485 1487 1489
1458 1457 1456 1455 1453 1458 1459 1463 1458 1457 1456 1455 1454 1454 1453 1452 1451 1449 1448 1447 1447 1447 1447 1447 1447 1448 1449 1450 1450 1451 1452 1454 1455 1457 1458 1460 1462 1463 1465 1466 1467 1469 1471 1473 1475 1477 1479 1481 1482
1457 1457 1457 1460 1458 1454 1462 1469 1459 1458 1458 1458 1458 1457 1457 1455 1454 1452 1451 1449 1448 1448 1448 1448 1449 1449 1449 1450 1450 1450 1452 1453 1454 1455 1455 1457 1458 1459 1460 1462 1463 1465 1466 1468 1470 1471 1473 1474 1476